This is the latest recevied weather packets stored in our database for station/object K5GHS-1. If no packets are shown the sender has not sent any weather packets the latest 10 day(s).
| Time | Temp. | Humidity | Pressure | Rain* | Wind** | Luminosity | Snow |
|---|---|---|---|---|---|---|---|
| 1777840133 | 30° C | 30% | 1015.7 hPa | 0 mm | - | 593 W/m² | - |
| 1777839831 | 29.44° C | 32% | 1015.8 hPa | 0 mm | - | 600 W/m² | - |
| 1777839226 | 28.89° C | 31% | 1016.2 hPa | 0 mm | - | 631 W/m² | - |
| 1777837103 | 28.89° C | 34% | 1016.5 hPa | 0 mm | - | 684 W/m² | - |
| 1777835584 | 28.33° C | 35% | 1017.1 hPa | 0 mm | - | 695 W/m² | - |
| 1777834675 | 28.33° C | 35% | 1017.1 hPa | 0 mm | - | 747 W/m² | - |
| 1777833155 | 28.33° C | 37% | 1017.5 hPa | 0 mm | - | 711 W/m² | - |
| 1777832551 | 28.33° C | 37% | 1017.7 hPa | 0 mm | - | 705 W/m² | - |
| 1777831945 | 27.22° C | 38% | 1017.9 hPa | 0 mm | - | 731 W/m² | - |
| 1777831641 | 27.78° C | 38% | 1018.2 hPa | 0 mm | - | 728 W/m² | - |
| 1777831340 | 27.78° C | 36% | 1018.2 hPa | 0 mm | - | 727 W/m² | - |
| 1777829822 | 27.22° C | 39% | 1018.7 hPa | 0 mm | - | 721 W/m² | - |
| 1777829519 | 27.22° C | 38% | 1018.7 hPa | 0 mm | - | 722 W/m² | - |
| 1777829216 | 27.78° C | 37% | 1018.8 hPa | 0 mm | - | 714 W/m² | - |
| 1777828913 | 27.22° C | 40% | 1018.7 hPa | 0 mm | - | 739 W/m² | - |
| 1777826184 | 25.56° C | 42% | 1019 hPa | 0 mm | - | 683 W/m² | - |
| 1777825882 | 26.11° C | 41% | 1019 hPa | 0 mm | - | 670 W/m² | - |
| 1777825579 | 25.56° C | 42% | 1019.3 hPa | 0 mm | - | 742 W/m² | - |
| 1777824973 | 26.11° C | 43% | 1019.1 hPa | 0 mm | - | 724 W/m² | - |
| 1777824669 | 25° C | 43% | 1019.3 hPa | 0 mm | - | 682 W/m² | - |
| 1777823758 | 25° C | 43% | 1019.4 hPa | 0 mm | - | 761 W/m² | - |
| 1777823456 | 25° C | 45% | 1019.4 hPa | 0 mm | - | 744 W/m² | - |
| 1777823153 | 25° C | 43% | 1019.3 hPa | 0 mm | - | 751 W/m² | - |
| 1777822548 | 24.44° C | 45% | 1019.1 hPa | 0 mm | - | 744 W/m² | - |
| 1777821943 | 23.89° C | 45% | 1019.6 hPa | 0 mm | - | 677 W/m² | - |
* Rain latest hour (hover to see other rain measurements)
** Current wind speed in m/s (hover to see current wind gust speed)